GW2639 Weather Reports


time (UTC)temp
C
wind
direction
speed
KPH
gust
KPH
rain 1hr
cm
rain 24hr
cm
rain mn
cm
humidity
%
barometer
mb
20260906110058 21 237 0.0 3.2 0.00 0.18 0.00 91 1013.8
20260906104552 21 226 0.0 4.8 0.00 0.18 0.00 91 1013.6
20260906103048 21 233 1.6 4.8 0.00 0.18 0.00 91 1013.4
20260906101601 21 172 0.0 4.8 0.00 0.18 0.00 91 1013.3
20260906100054 21 206 3.2 6.4 0.00 0.18 0.00 91 1013.2
20260906094604 21 229 1.6 8.0 0.00 0.18 0.00 91 1012.9
20260906093056 21 220 3.2 6.4 0.00 0.18 0.00 91 1013.0
20260906091554 21 0 0.0 0.0 0.00 0.18 0.00 91 1013.0
20260906090126 21 0 0.0 6.4 0.00 0.18 0.00 91 1013.1
20260906084553 21 218 1.6 4.8 0.00 0.18 0.00 91 1013.1
20260906083056 21 232 0.0 3.2 0.00 0.18 0.00 91 1013.2
20260906081552 21 0 0.0 8.0 0.00 0.18 0.00 91 1013.1
20260906074555 21 208 3.2 8.0 0.00 0.18 0.00 90 1012.8
20260906073056 21 220 3.2 8.0 0.00 0.18 0.00 90 1012.8
20260906071552 21 237 1.6 9.7 0.00 0.18 0.00 90 1012.7
20260906070058 21 242 3.2 8.0 0.00 0.18 0.00 90 1012.5
20260906064553 22 221 1.6 8.0 0.00 0.18 0.00 91 1012.6
20260906063056 22 180 4.8 8.0 0.00 0.18 0.00 90 1012.9
20260906061551 21 235 1.6 4.8 0.00 0.18 0.00 90 1013.1
20260906060046 22 240 1.6 8.0 0.00 0.18 0.00 90 1013.2
20260906054601 21 234 1.6 4.8 0.00 0.18 0.00 90 1013.1
20260906053106 22 214 3.2 4.8 0.00 0.18 0.00 90 1013.1
20260906051547 22 235 3.2 6.4 0.00 0.18 0.00 90 1013.1
20260906050100 22 212 3.2 6.4 0.00 0.18 0.00 90 1013.3
20260906044553 22 229 3.2 6.4 0.00 0.18 0.00 90 1013.1
20260906043046 22 235 0.0 6.4 0.00 0.18 0.00 90 1013.0
20260906041559 22 220 3.2 6.4 0.00 0.18 0.00 90 1013.1
20260906040054 22 210 4.8 9.7 0.00 0.18 0.00 90 1012.9
20260906034547 22 0 0.0 4.8 0.00 0.18 0.18 90 1013.1
20260906033047 22 230 1.6 4.8 0.00 0.18 0.18 89 1013.3
20260906031557 22 180 1.6 4.8 0.00 0.18 0.18 89 1013.4
20260906030054 22 231 3.2 9.7 0.00 0.18 0.18 89 1013.5
20260906024607 22 237 3.2 6.4 0.00 0.18 0.18 89 1013.6
20260906023059 22 231 1.6 6.4 0.00 0.18 0.18 89 1013.7
20260906021600 22 232 1.6 6.4 0.00 0.18 0.18 89 1013.8
20260906020055 23 226 1.6 6.4 0.00 0.18 0.18 88 1013.5
20260906014551 23 260 3.2 6.4 0.00 0.18 0.18 88 1013.3
20260906013052 23 210 3.2 6.4 0.00 0.18 0.18 88 1013.0
20260906011559 23 0 0.0 8.0 0.00 0.18 0.18 87 1012.7
20260906010119 23 239 3.2 8.0 0.00 0.18 0.18 87 1012.5
20260906004557 24 223 3.2 9.7 0.00 0.18 0.18 86 1012.5
20260906003054 24 243 3.2 8.0 0.00 0.18 0.18 86 1012.6
20260906001601 25 225 4.8 11.3 0.00 0.18 0.18 85 1012.5
20260906000047 25 233 3.2 8.0 0.00 0.18 0.18 84 1012.6
20260905234554 25 237 1.6 8.0 0.00 0.18 0.18 83 1012.6
20260905233046 26 249 3.2 6.4 0.00 0.18 0.18 82 1012.9
20260905231551 26 0 1.6 8.0 0.00 0.18 0.18 81 1012.8
20260905230108 26 217 3.2 9.7 0.00 0.18 0.18 80 1012.7
20260905224551 27 0 0.0 6.4 0.00 0.18 0.18 78 1012.8
20260905223057 27 216 1.6 6.4 0.00 0.18 0.18 75 1012.7
20260905221552 28 224 1.6 6.4 0.00 0.18 0.18 73 1012.6
20260905220047 29 237 1.6 6.4 0.00 0.18 0.18 70 1012.5
20260905214553 29 301 1.6 6.4 0.00 0.18 0.18 64 1012.4
20260905213054 30 267 1.6 9.7 0.00 0.18 0.18 63 1012.4
20260905211608 30 293 3.2 9.7 0.00 0.18 0.18 63 1012.2
20260905210059 30 358 4.8 11.3 0.00 0.18 0.18 62 1012.1
20260905204552 30 296 1.6 8.0 0.00 0.18 0.18 62 1012.1
20260905203056 30 191 1.6 6.4 0.00 0.18 0.18 62 1012.1
20260905201557 30 272 1.6 6.4 0.00 0.18 0.18 61 1012.1
20260905200059 30 310 3.2 8.0 0.00 0.18 0.18 60 1012.2
20260905194555 30 0 1.6 6.4 0.00 0.18 0.18 62 1012.4
20260905193051 29 332 0.0 8.0 0.00 0.18 0.18 63 1012.5
20260905191546 29 58 3.2 8.0 0.00 0.18 0.18 62 1012.8
20260905190049 28 353 3.2 9.7 0.00 0.18 0.18 65 1013.1
20260905184609 28 69 3.2 8.0 0.00 0.18 0.18 64 1013.4
20260905183108 28 89 4.8 9.7 0.00 0.18 0.18 65 1013.6
20260905181558 28 202 1.6 8.0 0.00 0.18 0.18 68 1014.0
20260905180057 28 293 3.2 12.9 0.00 0.18 0.18 68 1014.1
20260905174550 27 0 1.6 6.4 0.00 0.18 0.18 71 1014.0
20260905173056 26 112 1.6 9.7 0.00 0.18 0.18 75 1014.3
20260905171554 26 33 4.8 12.9 0.00 0.18 0.18 76 1014.1
20260905164549 26 5 1.6 8.0 0.00 0.18 0.18 79 1015.0
20260905163054 25 43 1.6 4.8 0.00 0.18 0.18 82 1015.1
20260905161551 25 0 1.6 6.4 0.00 0.18 0.18 82 1015.2
20260905160049 25 47 0.0 4.8 0.00 0.18 0.18 83 1015.1
20260905154554 25 0 1.6 6.4 0.00 0.18 0.18 84 1015.4
20260905153052 25 307 3.2 8.0 0.00 0.18 0.18 84 1014.6
20260905151558 24 220 3.2 12.9 0.00 0.18 0.18 84 1014.1
20260905150100 23 248 0.0 16.1 0.00 0.18 0.18 88 1013.6
20260905144553 23 101 0.0 6.4 0.00 0.18 0.18 89 1014.2
20260905143048 23 31 3.2 8.0 0.00 0.18 0.18 90 1015.0
20260905141554 22 0 0.0 4.8 0.03 0.18 0.18 91 1015.9
20260905140107 22 0 0.0 6.4 0.13 0.18 0.18 91 1015.7
20260905134551 22 0 0.0 3.2 0.18 0.18 0.18 91 1016.2
20260905133055 22 0 0.0 3.2 0.18 0.18 0.18 90 1016.5
20260905131558 22 133 1.6 4.8 0.15 0.15 0.15 90 1015.7
20260905130046 22 0 0.0 12.9 0.05 0.05 0.05 90 1015.9
20260905124546 22 320 3.2 16.1 0.00 0.00 0.00 91 1016.4
20260905123104 22 0 0.0 4.8 0.00 0.00 0.00 91 1015.2
20260905121553 22 216 1.6 11.3 0.00 0.00 0.00 91 1015.0
20260905120051 21 238 3.2 4.8 0.00 0.00 0.00 91 1013.6
20260905114556 21 226 1.6 4.8 0.00 0.00 0.00 91 1013.4
20260905113051 21 233 0.0 6.4 0.00 0.00 0.00 91 1013.6
20260905111553 21 241 1.6 6.4 0.00 0.00 0.00 91 1013.6